Flag for Germany Weather past 2 weeks in Bergkamen, North Rhine-Westphalia, Germany

Now
66 °F

Clear.


Feels Like: 66 °F
Forecast: 60 / 86 °F
Wind: 3 mph from Northeast

Location: Dortmund / Wickede

Current Time: Aug 2, 2015 at 10:49:59 PM

Latest Report: Aug 2, 2015 at 10:20 PM


Visibility: 10 mi

Pressure: 30.07 "Hg

Humidity: 49%

Dew point: 46 °F

Location of BergkamenLocation

Historic Weather in Bergkamen — Graph

°F

Bergkamen temperature yesterday

Maximum temperature yesterday: 75 °F (at 2:50 PM)
Minimum temperature yesterday: 46 °F (at 5:20 AM)
Average temperature yesterday: 65 °F

Past Weeks' High & Low Weather Summary

 TemperatureHumidityPressure
High81 °F (Jul 24, 5:50 PM)88% (Jul 19, 5:20 AM)30.15 "Hg (Jul 19, 5:20 AM)
Low45 °F (Jul 31, 5:20 AM)27% (Aug 2, 3:20 PM)29.50 "Hg (Jul 25, 7:50 AM)
Average64 °F64%29.88 "Hg
* Reported Jul 18 9:20 PM — Aug 2 9:20 PM, Bergkamen, Weather by CustomWeather, © 2015

Note: Actual official high and low records may vary slightly from our data, if they occured in-between our weather recording intervals... More about our weather records

Advertising

Bergkamen weather history for previous 24 hours

 ConditionsComfort  
Time TempWeatherWind HumidityBarometerVisibility
9:20 PM
Sun, Aug 2
70 °FSunny.6 mph40%30.07 "Hg10 mi
8:50 PM72 °FSunny.7 mph38%30.07 "Hg10 mi
8:20 PM73 °FSunny.10 mph36%30.07 "Hg10 mi
7:50 PM75 °FSunny.8 mph31%30.07 "Hg10 mi
7:20 PM77 °FSunny.8 mph30%30.07 "Hg10 mi
6:50 PM75 °FSunny.7 mph34%30.07 "Hg10 mi
6:20 PM77 °FPassing clouds.5 mph30%30.07 "HgN/A
5:50 PM77 °FPassing clouds.5 mph30%30.09 "HgN/A
5:20 PM77 °FSunny.3 mph28%30.09 "Hg10 mi
4:50 PM77 °FSunny.3 mph28%30.09 "Hg10 mi
4:20 PM77 °FSunny.5 mph28%30.09 "Hg10 mi
3:50 PM77 °FPassing clouds.6 mph30%30.09 "HgN/A
3:20 PM75 °FPassing clouds.5 mph27%30.12 "HgN/A
2:50 PM75 °FSunny.5 mph31%30.12 "Hg10 mi
2:20 PM75 °FSunny.5 mph31%30.12 "Hg10 mi
1:50 PM73 °FSunny.3 mph31%30.12 "Hg10 mi
1:20 PM73 °FSunny.5 mph31%30.15 "Hg10 mi
12:50 PM73 °FSunny.3 mph33%30.15 "Hg10 mi
12:20 PM72 °FSunny.3 mph36%30.15 "Hg10 mi
11:50 AM72 °FSunny.3 mph38%30.15 "Hg10 mi
11:20 AM70 °FSunny.2 mph43%30.15 "Hg10 mi
10:50 AM70 °FSunny.3 mph38%30.15 "Hg10 mi
10:20 AM68 °FSunny.2 mph40%30.15 "Hg10 mi
9:50 AM68 °FSunny.1 mph46%30.15 "Hg10 mi
9:20 AM66 °FSunny.2 mph56%30.12 "Hg10 mi
8:50 AM61 °FPassing clouds.5 mph68%30.12 "HgN/A
8:20 AM57 °FSunny.7 mph77%30.12 "Hg10 mi
7:50 AM55 °FSunny.7 mph77%30.12 "Hg10 mi
7:20 AM54 °FSunny.7 mph82%30.12 "Hg10 mi
6:50 AM52 °FClear.7 mph82%30.12 "Hg10 mi
6:20 AM52 °FClear.7 mph82%30.09 "Hg10 mi
5:50 AM50 °FClear.7 mph82%30.09 "Hg10 mi
5:20 AM50 °FClear.7 mph88%30.09 "Hg10 mi
10:50 PM
Sat, Aug 1
63 °FClear.2 mph56%30.04 "Hg10 mi
10:20 PM63 °FClear.3 mph56%30.04 "Hg10 mi
Weather by CustomWeather, © 2015

See weather overviewHow to use our weather pages